Time,TemperatureF,DewpointF,PressureIn,WindDirection,WindDirectionDegrees,WindSpeedMPH,WindSpeedGustMPH,Humidity,HourlyPrecipIn,Conditions,Clouds,dailyrainin,SoftwareType,DateUTC
2013-03-20 00:01:00,64.0,52.8,29.99,South,174,1.0,3.0,67,0.00,,,0.00,WeatherCatV1.13B119,2013-03-20 05:01:00,
2013-03-20 00:06:00,63.7,52.9,29.99,North,355,2.0,3.0,68,0.00,,,0.00,WeatherCatV1.13B119,2013-03-20 05:06:00,
2013-03-20 00:11:00,63.3,53.0,30.01,ENE,62,4.0,4.0,69,0.00,,,0.00,WeatherCatV1.13B119,2013-03-20 05:11:00,
2013-03-20 00:16:00,62.8,52.9,30.01,WNW,297,2.0,2.0,70,0.00,,,0.00,WeatherCatV1.13B119,2013-03-20 05:16:00,
2013-03-20 00:21:00,62.2,52.7,30.01,West,275,0.0,3.0,71,0.00,,,0.00,WeatherCatV1.13B119,2013-03-20 05:21:00,
2013-03-20 00:26:00,62.0,52.5,30.02,SE,128,1.0,5.0,71,0.00,,,0.00,WeatherCatV1.13B119,2013-03-20 05:26:00,
2013-03-20 00:31:00,61.7,51.8,30.02,East,86,2.0,2.0,70,0.00,,,0.00,WeatherCatV1.13B119,2013-03-20 05:31:00,
2013-03-20 00:36:00,61.6,51.3,30.03,SSE,162,0.0,3.0,69,0.00,,,0.00,WeatherCatV1.13B119,2013-03-20 05:36:00,
2013-03-20 00:41:00,61.6,50.9,30.02,SSE,156,1.0,6.0,68,0.00,,,0.00,WeatherCatV1.13B119,2013-03-20 05:41:00,
2013-03-20 00:46:00,61.6,50.5,30.02,West,278,0.0,4.0,67,0.00,,,0.00,WeatherCatV1.13B119,2013-03-20 05:46:00,
2013-03-20 00:51:00,61.6,50.5,30.03,NE,34,0.0,3.0,67,0.00,,,0.00,WeatherCatV1.13B119,2013-03-20 05:51:00,
2013-03-20 00:56:00,61.7,50.6,30.03,NNE,28,2.0,3.0,67,0.00,,,0.00,WeatherCatV1.13B119,2013-03-20 05:56:00,
2013-03-20 01:01:00,61.7,50.6,30.04,NW,311,0.0,1.0,67,0.00,,,0.00,WeatherCatV1.13B119,2013-03-20 06:01:00,
2013-03-20 01:06:00,61.6,50.5,30.05,WNW,293,0.0,3.0,67,0.00,,,0.00,WeatherCatV1.13B119,2013-03-20 06:06:00,
2013-03-20 01:11:00,61.4,50.3,30.05,NE,45,3.0,6.0,67,0.00,,,0.00,WeatherCatV1.13B119,2013-03-20 06:11:00,
2013-03-20 01:16:00,61.1,49.7,30.05,NW,325,0.0,4.0,66,0.00,,,0.00,WeatherCatV1.13B119,2013-03-20 06:16:00,
2013-03-20 01:21:00,60.8,50.2,30.05,ESE,107,2.0,3.0,68,0.00,,,0.00,WeatherCatV1.13B119,2013-03-20 06:21:00,
2013-03-20 01:26:00,60.5,50.3,30.05,NE,39,1.0,4.0,69,0.00,,,0.00,WeatherCatV1.13B119,2013-03-20 06:26:00,
2013-03-20 01:31:00,60.3,50.1,30.05,ESE,105,0.0,2.0,69,0.00,,,0.00,WeatherCatV1.13B119,2013-03-20 06:31:00,
2013-03-20 01:36:00,60.1,49.9,30.04,North,349,1.0,6.0,69,0.00,,,0.00,WeatherCatV1.13B119,2013-03-20 06:36:00,
2013-03-20 01:41:00,59.9,49.7,30.03,ENE,69,6.0,7.0,69,0.00,,,0.00,WeatherCatV1.13B119,2013-03-20 06:41:00,
2013-03-20 01:46:00,59.9,49.3,30.03,SE,127,4.0,9.0,68,0.00,,,0.00,WeatherCatV1.13B119,2013-03-20 06:46:00,
2013-03-20 01:51:00,60.2,49.6,30.03,ESE,117,5.0,10.0,68,0.00,,,0.00,WeatherCatV1.13B119,2013-03-20 06:51:00,
2013-03-20 01:56:00,60.5,49.5,30.02,East,85,1.0,8.0,67,0.00,,,0.00,WeatherCatV1.13B119,2013-03-20 06:56:00,
2013-03-20 02:01:00,60.7,49.7,30.02,SE,127,4.0,4.0,67,0.00,,,0.00,WeatherCatV1.13B119,2013-03-20 07:01:00,
2013-03-20 02:06:00,60.8,49.8,30.01,ENE,77,2.0,2.0,67,0.00,,,0.00,WeatherCatV1.13B119,2013-03-20 07:06:00,
2013-03-20 02:11:00,60.9,49.9,30.02,ESE,105,0.0,2.0,67,0.00,,,0.00,WeatherCatV1.13B119,2013-03-20 07:11:00,
2013-03-20 02:16:00,60.9,49.5,30.06,NW,316,5.0,5.0,66,0.00,,,0.00,WeatherCatV1.13B119,2013-03-20 07:16:00,
2013-03-20 02:21:00,61.3,49.8,30.12,NW,321,2.0,8.0,66,0.00,,,0.00,WeatherCatV1.13B119,2013-03-20 07:21:00,
2013-03-20 02:26:00,61.4,49.9,29.98,SW,229,0.0,7.0,66,0.00,,,0.00,WeatherCatV1.13B119,2013-03-20 07:26:00,
2013-03-20 02:31:00,61.2,49.7,30.00,ESE,109,3.0,8.0,66,0.00,,,0.00,WeatherCatV1.13B119,2013-03-20 07:31:00,
2013-03-20 02:36:00,61.1,50.1,30.04,ENE,60,1.0,7.0,67,0.00,,,0.00,WeatherCatV1.13B119,2013-03-20 07:36:00,
2013-03-20 02:41:00,60.6,50.8,30.05,ENE,70,1.0,2.0,70,0.00,,,0.00,WeatherCatV1.13B119,2013-03-20 07:41:00,
2013-03-20 02:46:00,60.0,50.2,30.03,East,96,1.0,5.0,70,0.00,,,0.00,WeatherCatV1.13B119,2013-03-20 07:46:00,
2013-03-20 02:51:00,59.4,50.4,30.04,ESE,103,0.0,1.0,72,0.00,,,0.00,WeatherCatV1.13B119,2013-03-20 07:51:00,
2013-03-20 02:56:00,59.1,50.5,30.04,ESE,104,2.0,3.0,73,0.00,,,0.00,WeatherCatV1.13B119,2013-03-20 07:56:00,
2013-03-20 03:01:00,59.1,50.8,30.05,East,80,0.0,3.0,74,0.00,,,0.00,WeatherCatV1.13B119,2013-03-20 08:01:00,
2013-03-20 03:06:00,59.0,50.7,30.05,East,83,0.0,0.0,74,0.00,,,0.00,WeatherCatV1.13B119,2013-03-20 08:06:00,
2013-03-20 03:11:00,58.9,51.0,30.05,East,85,0.0,1.0,75,0.00,,,0.00,WeatherCatV1.13B119,2013-03-20 08:11:00,
2013-03-20 03:16:00,58.6,51.4,30.05,East,101,1.0,2.0,77,0.00,,,0.00,WeatherCatV1.13B119,2013-03-20 08:16:00,
2013-03-20 03:21:00,58.3,51.5,30.04,ESE,113,0.0,3.0,78,0.00,,,0.00,WeatherCatV1.13B119,2013-03-20 08:21:00,
2013-03-20 03:26:00,58.2,51.4,30.04,East,101,0.0,1.0,78,0.00,,,0.00,WeatherCatV1.13B119,2013-03-20 08:26:00,
2013-03-20 03:31:00,58.0,51.2,30.05,WNW,297,0.0,1.0,78,0.00,,,0.00,WeatherCatV1.13B119,2013-03-20 08:31:00,
2013-03-20 03:36:00,57.8,51.3,30.05,WNW,297,1.0,1.0,79,0.00,,,0.00,WeatherCatV1.13B119,2013-03-20 08:36:00,
2013-03-20 03:41:00,57.5,51.0,30.05,East,96,1.0,1.0,79,0.00,,,0.00,WeatherCatV1.13B119,2013-03-20 08:41:00,
2013-03-20 03:46:00,57.3,52.2,30.04,East,96,0.0,1.0,83,0.00,,,0.00,WeatherCatV1.13B119,2013-03-20 08:46:00,
2013-03-20 03:51:00,57.0,52.9,30.05,East,96,0.0,0.0,86,0.00,,,0.01,WeatherCatV1.13B119,2013-03-20 08:51:00,
2013-03-20 03:56:00,56.6,52.8,30.05,East,96,0.0,0.0,87,0.00,,,0.01,WeatherCatV1.13B119,2013-03-20 08:56:00,
2013-03-20 04:01:00,56.1,52.6,30.08,NW,308,2.0,3.0,88,0.05,,,0.02,WeatherCatV1.13B119,2013-03-20 09:01:00,
2013-03-20 04:06:00,55.6,52.4,30.11,NW,316,3.0,9.0,89,0.12,,,0.03,WeatherCatV1.13B119,2013-03-20 09:06:00,
2013-03-20 04:11:00,55.3,52.4,30.11,NW,324,1.0,6.0,90,0.25,,,0.05,WeatherCatV1.13B119,2013-03-20 09:11:00,
2013-03-20 04:16:00,55.0,52.4,30.12,WNW,303,3.0,3.0,91,0.19,,,0.07,WeatherCatV1.13B119,2013-03-20 09:16:00,
2013-03-20 04:21:00,54.8,52.5,30.11,ENE,71,0.0,2.0,92,0.18,,,0.08,WeatherCatV1.13B119,2013-03-20 09:21:00,
2013-03-20 04:26:00,54.8,52.5,30.08,ESE,104,0.0,1.0,92,0.10,,,0.09,WeatherCatV1.13B119,2013-03-20 09:26:00,
2013-03-20 04:31:00,54.8,52.8,30.05,East,97,0.0,0.0,93,0.21,,,0.11,WeatherCatV1.13B119,2013-03-20 09:31:00,
2013-03-20 04:36:00,54.8,53.1,30.05,SSE,156,0.0,0.0,94,0.15,,,0.12,WeatherCatV1.13B119,2013-03-20 09:36:00,
2013-03-20 04:41:00,54.7,53.0,30.06,SSW,198,0.0,0.0,94,0.12,,,0.13,WeatherCatV1.13B119,2013-03-20 09:41:00,
2013-03-20 04:46:00,54.7,53.0,30.07,WSW,245,0.0,0.0,94,0.06,,,0.13,WeatherCatV1.13B119,2013-03-20 09:46:00,
2013-03-20 04:51:00,54.7,53.0,30.08,WSW,245,0.0,0.0,94,0.04,,,0.13,WeatherCatV1.13B119,2013-03-20 09:51:00,
2013-03-20 04:56:00,54.7,53.3,30.08,WSW,245,0.0,0.0,95,0.00,,,0.13,WeatherCatV1.13B119,2013-03-20 09:56:00,
2013-03-20 05:01:00,54.6,53.2,30.07,WSW,245,0.0,0.0,95,0.00,,,0.13,WeatherCatV1.13B119,2013-03-20 10:01:00,
2013-03-20 05:06:00,54.6,53.2,30.07,WSW,245,0.0,0.0,95,0.00,,,0.13,WeatherCatV1.13B119,2013-03-20 10:06:00,
2013-03-20 05:11:00,54.4,53.0,30.07,WSW,245,0.0,0.0,95,0.00,,,0.13,WeatherCatV1.13B119,2013-03-20 10:11:00,
2013-03-20 05:16:00,54.3,52.9,30.07,WSW,245,0.0,0.0,95,0.00,,,0.13,WeatherCatV1.13B119,2013-03-20 10:16:00,
2013-03-20 05:21:00,54.3,53.2,30.07,WNW,296,0.0,1.0,96,0.00,,,0.13,WeatherCatV1.13B119,2013-03-20 10:21:00,
2013-03-20 05:26:00,54.4,53.3,30.08,North,354,0.0,2.0,96,0.00,,,0.13,WeatherCatV1.13B119,2013-03-20 10:26:00,
2013-03-20 05:31:00,54.4,53.0,30.08,ENE,65,1.0,1.0,95,0.00,,,0.13,WeatherCatV1.13B119,2013-03-20 10:31:00,
2013-03-20 05:36:00,54.3,52.9,30.08,North,8,1.0,2.0,95,0.00,,,0.13,WeatherCatV1.13B119,2013-03-20 10:36:00,
2013-03-20 05:41:00,54.3,52.9,30.09,SE,127,0.0,1.0,95,0.00,,,0.13,WeatherCatV1.13B119,2013-03-20 10:41:00,
2013-03-20 05:46:00,54.2,52.8,30.09,NE,48,0.0,0.0,95,0.00,,,0.13,WeatherCatV1.13B119,2013-03-20 10:46:00,
2013-03-20 05:51:00,54.2,52.8,30.09,NNW,334,0.0,1.0,95,0.00,,,0.13,WeatherCatV1.13B119,2013-03-20 10:51:00,
2013-03-20 05:56:00,54.1,52.7,30.10,NW,308,0.0,1.0,95,0.00,,,0.13,WeatherCatV1.13B119,2013-03-20 10:56:00,
2013-03-20 06:01:00,54.0,52.6,30.10,ENE,70,0.0,0.0,95,0.00,,,0.13,WeatherCatV1.13B119,2013-03-20 11:01:00,
2013-03-20 06:06:00,54.0,52.6,30.11,NNW,341,0.0,0.0,95,0.00,,,0.13,WeatherCatV1.13B119,2013-03-20 11:06:00,
2013-03-20 06:11:00,53.9,52.5,30.11,SE,142,0.0,1.0,95,0.00,,,0.13,WeatherCatV1.13B119,2013-03-20 11:11:00,
2013-03-20 06:16:00,53.8,52.4,30.12,WNW,300,0.0,1.0,95,0.00,,,0.13,WeatherCatV1.13B119,2013-03-20 11:16:00,
2013-03-20 06:21:00,53.7,52.3,30.13,ESE,112,0.0,1.0,95,0.00,,,0.13,WeatherCatV1.13B119,2013-03-20 11:21:00,
2013-03-20 06:26:00,53.6,52.2,30.13,WNW,289,0.0,1.0,95,0.00,,,0.13,WeatherCatV1.13B119,2013-03-20 11:26:00,
2013-03-20 06:31:00,53.6,52.2,30.13,NNW,333,0.0,1.0,95,0.00,,,0.13,WeatherCatV1.13B119,2013-03-20 11:31:00,
2013-03-20 06:36:00,53.6,52.2,30.12,NE,46,0.0,0.0,95,0.00,,,0.13,WeatherCatV1.13B119,2013-03-20 11:36:00,
2013-03-20 06:41:00,53.5,52.1,30.12,WSW,245,0.0,0.0,95,0.00,,,0.13,WeatherCatV1.13B119,2013-03-20 11:41:00,
2013-03-20 06:46:00,53.5,52.1,30.14,NW,313,1.0,2.0,95,0.00,,,0.13,WeatherCatV1.13B119,2013-03-20 11:46:00,
2013-03-20 06:51:00,53.4,52.0,30.14,WNW,292,0.0,1.0,95,0.00,,,0.13,WeatherCatV1.13B119,2013-03-20 11:51:00,
2013-03-20 06:56:00,53.4,52.0,30.15,WNW,292,0.0,1.0,95,0.00,,,0.13,WeatherCatV1.13B119,2013-03-20 11:56:00,
2013-03-20 07:01:00,53.5,52.1,30.15,WNW,292,0.0,0.0,95,0.00,,,0.13,WeatherCatV1.13B119,2013-03-20 12:01:00,
2013-03-20 07:06:00,53.5,52.4,30.15,WNW,293,0.0,0.0,96,0.00,,,0.13,WeatherCatV1.13B119,2013-03-20 12:06:00,
2013-03-20 07:11:00,53.4,52.0,30.15,SE,146,0.0,0.0,95,0.00,,,0.13,WeatherCatV1.13B119,2013-03-20 12:11:00,
2013-03-20 07:16:00,53.2,51.5,30.15,East,101,0.0,0.0,94,0.00,,,0.13,WeatherCatV1.13B119,2013-03-20 12:16:00,
2013-03-20 07:21:00,53.2,51.5,30.16,ENE,58,1.0,2.0,94,0.00,,,0.13,WeatherCatV1.13B119,2013-03-20 12:21:00,
2013-03-20 07:26:00,53.1,51.4,30.16,North,4,1.0,2.0,94,0.00,,,0.13,WeatherCatV1.13B119,2013-03-20 12:26:00,
2013-03-20 07:31:00,53.0,51.0,30.16,SE,134,0.0,1.0,93,0.00,,,0.13,WeatherCatV1.13B119,2013-03-20 12:31:00,
2013-03-20 07:36:00,52.8,50.8,30.16,SE,134,0.0,1.0,93,0.00,,,0.13,WeatherCatV1.13B119,2013-03-20 12:36:00,
2013-03-20 07:41:00,52.7,50.7,30.17,East,92,0.0,1.0,93,0.00,,,0.13,WeatherCatV1.13B119,2013-03-20 12:41:00,
2013-03-20 07:46:00,52.7,50.7,30.17,SE,146,0.0,1.0,93,0.00,,,0.13,WeatherCatV1.13B119,2013-03-20 12:46:00,
2013-03-20 07:51:00,52.7,50.7,30.17,West,272,0.0,1.0,93,0.00,,,0.13,WeatherCatV1.13B119,2013-03-20 12:51:00,
2013-03-20 07:56:00,52.6,50.3,30.17,WNW,285,1.0,1.0,92,0.00,,,0.13,WeatherCatV1.13B119,2013-03-20 12:56:00,
2013-03-20 08:01:00,52.5,50.2,30.18,NE,41,2.0,2.0,92,0.00,,,0.13,WeatherCatV1.13B119,2013-03-20 13:01:00,
2013-03-20 08:06:00,52.3,50.3,30.18,NW,323,0.0,0.0,93,0.00,,,0.13,WeatherCatV1.13B119,2013-03-20 13:06:00,
2013-03-20 08:11:00,52.2,49.9,30.19,NNW,335,0.0,0.0,92,0.00,,,0.13,WeatherCatV1.13B119,2013-03-20 13:11:00,
2013-03-20 08:16:00,52.0,49.7,30.19,WNW,289,2.0,2.0,92,0.00,,,0.13,WeatherCatV1.13B119,2013-03-20 13:16:00,
2013-03-20 08:21:00,52.0,49.7,30.19,NW,309,0.0,0.0,92,0.00,,,0.13,WeatherCatV1.13B119,2013-03-20 13:21:00,
2013-03-20 08:26:00,51.9,49.9,30.19,NW,312,0.0,0.0,93,0.00,,,0.13,WeatherCatV1.13B119,2013-03-20 13:26:00,
2013-03-20 08:31:00,52.1,49.8,30.19,NW,312,0.0,0.0,92,0.00,,,0.13,WeatherCatV1.13B119,2013-03-20 13:31:00,
2013-03-20 08:36:00,52.5,50.2,30.19,NW,311,0.0,0.0,92,0.00,,,0.13,WeatherCatV1.13B119,2013-03-20 13:36:00,
2013-03-20 08:41:00,53.1,50.2,30.20,NNW,330,0.0,0.0,90,0.00,,,0.13,WeatherCatV1.13B119,2013-03-20 13:41:00,
2013-03-20 08:46:00,53.4,50.2,30.20,NW,311,0.0,1.0,89,0.00,,,0.13,WeatherCatV1.13B119,2013-03-20 13:46:00,
2013-03-20 08:51:00,53.6,49.8,30.20,NNW,342,0.0,1.0,87,0.00,,,0.13,WeatherCatV1.13B119,2013-03-20 13:51:00,
2013-03-20 08:56:00,53.9,49.8,30.20,NW,317,0.0,1.0,86,0.00,,,0.13,WeatherCatV1.13B119,2013-03-20 13:56:00,
2013-03-20 09:01:00,54.1,49.7,30.21,WNW,282,0.0,1.0,85,0.00,,,0.13,WeatherCatV1.13B119,2013-03-20 14:01:00,
2013-03-20 09:06:00,54.3,49.9,30.21,SSE,159,0.0,1.0,85,0.00,,,0.13,WeatherCatV1.13B119,2013-03-20 14:06:00,
2013-03-20 09:11:00,54.6,49.5,30.21,East,96,0.0,1.0,83,0.00,,,0.13,WeatherCatV1.13B119,2013-03-20 14:11:00,
2013-03-20 09:16:00,55.0,49.9,30.21,SW,231,0.0,1.0,83,0.00,,,0.13,WeatherCatV1.13B119,2013-03-20 14:16:00,
2013-03-20 09:21:00,55.2,50.4,30.21,SW,236,1.0,1.0,84,0.00,,,0.13,WeatherCatV1.13B119,2013-03-20 14:21:00,
2013-03-20 09:26:00,55.5,49.8,30.21,SE,127,0.0,1.0,81,0.00,,,0.13,WeatherCatV1.13B119,2013-03-20 14:26:00,
2013-03-20 09:31:00,55.8,49.7,30.21,ESE,113,0.0,1.0,80,0.00,,,0.13,WeatherCatV1.13B119,2013-03-20 14:31:00,
2013-03-20 09:36:00,55.7,50.0,30.21,East,100,0.0,4.0,81,0.00,,,0.13,WeatherCatV1.13B119,2013-03-20 14:36:00,
2013-03-20 09:41:00,55.9,49.5,30.22,ENE,61,0.0,2.0,79,0.00,,,0.13,WeatherCatV1.13B119,2013-03-20 14:41:00,
2013-03-20 09:46:00,56.3,49.5,30.21,NE,53,0.0,1.0,78,0.00,,,0.13,WeatherCatV1.13B119,2013-03-20 14:46:00,
2013-03-20 09:51:00,56.9,49.8,30.21,East,99,0.0,1.0,77,0.00,,,0.13,WeatherCatV1.13B119,2013-03-20 14:51:00,
2013-03-20 09:56:00,57.2,49.7,30.21,ESE,108,3.0,6.0,76,0.00,,,0.13,WeatherCatV1.13B119,2013-03-20 14:56:00,
2013-03-20 10:01:00,57.7,49.8,30.21,East,96,1.0,2.0,75,0.00,,,0.13,WeatherCatV1.13B119,2013-03-20 15:01:00,
2013-03-20 10:06:00,58.5,49.5,30.22,ESE,113,3.0,6.0,72,0.00,,,0.13,WeatherCatV1.13B119,2013-03-20 15:06:00,
2013-03-20 10:11:00,58.5,48.7,30.22,NNW,337,2.0,2.0,70,0.00,,,0.13,WeatherCatV1.13B119,2013-03-20 15:11:00,
2013-03-20 10:16:00,58.8,49.0,30.22,SSE,157,2.0,6.0,70,0.00,,,0.13,WeatherCatV1.13B119,2013-03-20 15:16:00,
2013-03-20 10:21:00,59.2,48.6,30.22,ESE,115,3.0,6.0,68,0.00,,,0.13,WeatherCatV1.13B119,2013-03-20 15:21:00,
2013-03-20 10:26:00,59.5,49.7,30.22,WNW,296,2.0,4.0,70,0.00,,,0.13,WeatherCatV1.13B119,2013-03-20 15:26:00,
2013-03-20 10:31:00,60.0,48.6,30.22,ESE,112,1.0,4.0,66,0.00,,,0.13,WeatherCatV1.13B119,2013-03-20 15:31:00,
2013-03-20 10:36:00,60.5,48.3,30.22,SE,131,1.0,4.0,64,0.00,,,0.13,WeatherCatV1.13B119,2013-03-20 15:36:00,
2013-03-20 10:41:00,61.0,49.1,30.22,ESE,113,0.0,1.0,65,0.00,,,0.13,WeatherCatV1.13B119,2013-03-20 15:41:00,
2013-03-20 10:46:00,61.5,48.4,30.22,East,79,0.0,2.0,62,0.00,,,0.13,WeatherCatV1.13B119,2013-03-20 15:46:00,
2013-03-20 10:51:00,61.9,49.6,30.22,ESE,113,1.0,2.0,64,0.00,,,0.13,WeatherCatV1.13B119,2013-03-20 15:51:00,
2013-03-20 10:56:00,62.4,48.3,30.22,ESE,103,1.0,2.0,60,0.00,,,0.13,WeatherCatV1.13B119,2013-03-20 15:56:00,
2013-03-20 11:01:00,62.8,47.8,30.22,North,357,1.0,3.0,58,0.00,,,0.13,WeatherCatV1.13B119,2013-03-20 16:01:00,
2013-03-20 11:06:00,63.3,48.3,30.22,ESE,117,0.0,1.0,58,0.00,,,0.13,WeatherCatV1.13B119,2013-03-20 16:06:00,
2013-03-20 11:11:00,64.1,50.4,30.22,East,100,2.0,2.0,61,0.00,,,0.13,WeatherCatV1.13B119,2013-03-20 16:11:00,
2013-03-20 11:16:00,64.3,47.8,30.22,East,97,3.0,4.0,55,0.00,,,0.13,WeatherCatV1.13B119,2013-03-20 16:16:00,
2013-03-20 11:21:00,64.3,48.3,30.22,ESE,109,1.0,5.0,56,0.00,,,0.13,WeatherCatV1.13B119,2013-03-20 16:21:00,
2013-03-20 11:26:00,64.8,49.7,30.22,West,274,1.0,2.0,58,0.00,,,0.13,WeatherCatV1.13B119,2013-03-20 16:26:00,
2013-03-20 11:31:00,65.8,49.7,30.22,ESE,114,0.0,2.0,56,0.00,,,0.13,WeatherCatV1.13B119,2013-03-20 16:31:00,
2013-03-20 11:36:00,66.6,47.9,30.22,NE,38,1.0,2.0,51,0.00,,,0.13,WeatherCatV1.13B119,2013-03-20 16:36:00,
2013-03-20 11:41:00,66.7,48.5,30.22,NNE,16,0.0,1.0,52,0.00,,,0.13,WeatherCatV1.13B119,2013-03-20 16:41:00,
2013-03-20 11:46:00,66.8,47.6,30.22,ENE,75,0.0,4.0,50,0.00,,,0.13,WeatherCatV1.13B119,2013-03-20 16:46:00,
2013-03-20 11:51:00,67.3,46.9,30.22,ESE,123,3.0,6.0,48,0.00,,,0.13,WeatherCatV1.13B119,2013-03-20 16:51:00,
2013-03-20 11:56:00,67.5,47.1,30.22,ESE,122,1.0,5.0,48,0.00,,,0.13,WeatherCatV1.13B119,2013-03-20 16:56:00,
2013-03-20 12:01:00,68.0,45.3,30.22,SSE,149,1.0,2.0,44,0.00,,,0.13,WeatherCatV1.13B119,2013-03-20 17:01:00,
2013-03-20 12:06:00,68.3,46.7,30.22,ENE,58,1.0,6.0,46,0.00,,,0.13,WeatherCatV1.13B119,2013-03-20 17:06:00,
2013-03-20 12:11:00,68.5,45.7,30.22,ESE,108,1.0,6.0,44,0.00,,,0.13,WeatherCatV1.13B119,2013-03-20 17:11:00,
2013-03-20 12:16:00,68.8,46.0,30.21,ESE,123,3.0,5.0,44,0.00,,,0.13,WeatherCatV1.13B119,2013-03-20 17:16:00,
2013-03-20 12:21:00,69.2,44.5,30.21,ESE,108,2.0,7.0,41,0.00,,,0.13,WeatherCatV1.13B119,2013-03-20 17:21:00,
2013-03-20 12:26:00,69.9,46.4,30.21,NE,40,1.0,2.0,43,0.00,,,0.13,WeatherCatV1.13B119,2013-03-20 17:26:00,
2013-03-20 12:31:00,70.6,46.4,30.21,SSE,147,0.0,2.0,42,0.00,,,0.13,WeatherCatV1.13B119,2013-03-20 17:31:00,
2013-03-20 12:36:00,71.0,44.8,30.21,SE,129,0.0,6.0,39,0.00,,,0.13,WeatherCatV1.13B119,2013-03-20 17:36:00,
2013-03-20 12:41:00,71.1,44.2,30.20,East,87,1.0,7.0,38,0.00,,,0.13,WeatherCatV1.13B119,2013-03-20 17:41:00,
2013-03-20 12:46:00,71.1,44.9,30.20,NE,43,0.0,2.0,39,0.00,,,0.13,WeatherCatV1.13B119,2013-03-20 17:46:00,
2013-03-20 12:51:00,71.5,43.1,30.20,West,264,0.0,6.0,36,0.00,,,0.13,WeatherCatV1.13B119,2013-03-20 17:51:00,
2013-03-20 12:56:00,71.5,44.5,30.20,SE,141,1.0,7.0,38,0.00,,,0.13,WeatherCatV1.13B119,2013-03-20 17:56:00,
2013-03-20 13:01:00,72.2,42.3,30.19,ESE,122,3.0,4.0,34,0.00,,,0.13,WeatherCatV1.13B119,2013-03-20 18:01:00,
2013-03-20 13:06:00,72.4,43.9,30.19,ESE,117,1.0,4.0,36,0.00,,,0.13,WeatherCatV1.13B119,2013-03-20 18:06:00,
2013-03-20 13:11:00,73.0,41.4,30.19,NNE,23,0.0,4.0,32,0.00,,,0.13,WeatherCatV1.13B119,2013-03-20 18:11:00,
2013-03-20 13:16:00,73.3,43.2,30.19,East,86,1.0,7.0,34,0.00,,,0.13,WeatherCatV1.13B119,2013-03-20 18:16:00,
2013-03-20 13:21:00,73.6,41.9,30.18,East,89,4.0,6.0,32,0.00,,,0.13,WeatherCatV1.13B119,2013-03-20 18:21:00,
2013-03-20 13:26:00,72.4,39.2,30.18,ESE,105,4.0,10.0,30,0.00,,,0.13,WeatherCatV1.13B119,2013-03-20 18:26:00,
2013-03-20 13:31:00,72.7,41.9,30.18,NE,56,1.0,3.0,33,0.00,,,0.13,WeatherCatV1.13B119,2013-03-20 18:31:00,
2013-03-20 13:36:00,73.7,37.6,30.17,ENE,59,0.0,4.0,27,0.00,,,0.13,WeatherCatV1.13B119,2013-03-20 18:36:00,
2013-03-20 13:41:00,74.4,38.2,30.17,ESE,120,3.0,5.0,27,0.00,,,0.13,WeatherCatV1.13B119,2013-03-20 18:41:00,
2013-03-20 13:46:00,73.5,37.5,30.16,SE,134,4.0,12.0,27,0.00,,,0.13,WeatherCatV1.13B119,2013-03-20 18:46:00,
2013-03-20 13:51:00,73.4,39.2,30.16,ESE,108,2.0,5.0,29,0.00,,,0.13,WeatherCatV1.13B119,2013-03-20 18:51:00,
2013-03-20 13:56:00,73.0,38.0,30.16,East,100,3.0,5.0,28,0.00,,,0.13,WeatherCatV1.13B119,2013-03-20 18:56:00,
2013-03-20 14:01:00,73.7,37.6,30.16,NNW,333,3.0,8.0,27,0.00,,,0.13,WeatherCatV1.13B119,2013-03-20 19:01:00,
2013-03-20 14:06:00,74.4,38.2,30.16,ESE,119,0.0,6.0,27,0.00,,,0.13,WeatherCatV1.13B119,2013-03-20 19:06:00,
2013-03-20 14:11:00,75.0,39.7,30.15,East,91,1.0,2.0,28,0.00,,,0.13,WeatherCatV1.13B119,2013-03-20 19:11:00,
2013-03-20 14:16:00,75.4,35.0,30.15,ENE,58,2.0,4.0,23,0.00,,,0.13,WeatherCatV1.13B119,2013-03-20 19:16:00,
2013-03-20 14:21:00,74.9,36.7,30.15,ENE,76,1.0,3.0,25,0.00,,,0.13,WeatherCatV1.13B119,2013-03-20 19:21:00,
2013-03-20 14:26:00,74.4,35.2,30.14,ESE,113,5.0,6.0,24,0.00,,,0.13,WeatherCatV1.13B119,2013-03-20 19:26:00,
2013-03-20 14:31:00,74.1,36.0,30.14,SE,134,2.0,7.0,25,0.00,,,0.13,WeatherCatV1.13B119,2013-03-20 19:31:00,
2013-03-20 14:36:00,73.5,34.5,30.14,SE,140,3.0,6.0,24,0.00,,,0.13,WeatherCatV1.13B119,2013-03-20 19:36:00,
2013-03-20 14:41:00,73.6,34.6,30.14,East,96,1.0,7.0,24,0.00,,,0.13,WeatherCatV1.13B119,2013-03-20 19:41:00,
2013-03-20 14:46:00,73.7,33.6,30.14,East,79,3.0,8.0,23,0.00,,,0.13,WeatherCatV1.13B119,2013-03-20 19:46:00,
2013-03-20 14:51:00,73.9,35.9,30.13,ESE,108,6.0,7.0,25,0.00,,,0.13,WeatherCatV1.13B119,2013-03-20 19:51:00,
2013-03-20 14:56:00,73.6,36.6,30.13,SSE,160,6.0,7.0,26,0.00,,,0.13,WeatherCatV1.13B119,2013-03-20 19:56:00,
2013-03-20 15:01:00,74.3,34.1,30.13,SE,140,2.0,6.0,23,0.00,,,0.13,WeatherCatV1.13B119,2013-03-20 20:01:00,
2013-03-20 15:06:00,74.2,34.0,30.13,East,96,5.0,11.0,23,0.00,,,0.13,WeatherCatV1.13B119,2013-03-20 20:06:00,
2013-03-20 15:11:00,74.1,33.9,30.12,ESE,104,2.0,5.0,23,0.00,,,0.13,WeatherCatV1.13B119,2013-03-20 20:11:00,
2013-03-20 15:16:00,74.0,33.8,30.12,ESE,106,3.0,8.0,23,0.00,,,0.13,WeatherCatV1.13B119,2013-03-20 20:16:00,
2013-03-20 15:21:00,74.3,33.0,30.12,ENE,72,2.0,9.0,22,0.00,,,0.13,WeatherCatV1.13B119,2013-03-20 20:21:00,
2013-03-20 15:26:00,74.6,34.3,30.12,ESE,114,8.0,8.0,23,0.00,,,0.13,WeatherCatV1.13B119,2013-03-20 20:26:00,
2013-03-20 15:31:00,74.4,35.2,30.11,SSE,161,2.0,5.0,24,0.00,,,0.13,WeatherCatV1.13B119,2013-03-20 20:31:00,
2013-03-20 15:36:00,75.0,34.7,30.12,East,98,1.0,2.0,23,0.00,,,0.13,WeatherCatV1.13B119,2013-03-20 20:36:00,
2013-03-20 15:41:00,75.3,32.7,30.11,East,95,5.0,9.0,21,0.00,,,0.13,WeatherCatV1.13B119,2013-03-20 20:41:00,
2013-03-20 15:46:00,74.5,32.0,30.11,SE,136,0.0,5.0,21,0.00,,,0.13,WeatherCatV1.13B119,2013-03-20 20:46:00,
2013-03-20 15:51:00,75.1,34.8,30.11,ESE,111,1.0,3.0,23,0.00,,,0.13,WeatherCatV1.13B119,2013-03-20 20:51:00,
2013-03-20 15:56:00,75.6,34.1,30.10,East,96,3.0,5.0,22,0.00,,,0.13,WeatherCatV1.13B119,2013-03-20 20:56:00,
2013-03-20 16:01:00,75.4,33.9,30.10,East,98,1.0,4.0,22,0.00,,,0.13,WeatherCatV1.13B119,2013-03-20 21:01:00,
2013-03-20 16:06:00,75.4,35.0,30.10,NNE,30,1.0,5.0,23,0.00,,,0.13,WeatherCatV1.13B119,2013-03-20 21:06:00,
2013-03-20 16:11:00,74.8,33.4,30.10,ENE,72,2.0,7.0,22,0.00,,,0.13,WeatherCatV1.13B119,2013-03-20 21:11:00,
2013-03-20 16:16:00,74.6,34.3,30.09,SE,134,1.0,4.0,23,0.00,,,0.13,WeatherCatV1.13B119,2013-03-20 21:16:00,
2013-03-20 16:21:00,75.4,35.0,30.09,East,84,2.0,5.0,23,0.00,,,0.13,WeatherCatV1.13B119,2013-03-20 21:21:00,
2013-03-20 16:26:00,75.4,35.0,30.09,SE,129,1.0,3.0,23,0.00,,,0.13,WeatherCatV1.13B119,2013-03-20 21:26:00,
2013-03-20 16:31:00,75.1,31.3,30.09,East,95,4.0,7.0,20,0.00,,,0.13,WeatherCatV1.13B119,2013-03-20 21:31:00,
2013-03-20 16:36:00,74.5,32.0,30.09,ESE,114,3.0,8.0,21,0.00,,,0.13,WeatherCatV1.13B119,2013-03-20 21:36:00,
2013-03-20 16:41:00,74.5,34.3,30.08,ESE,112,3.0,7.0,23,0.00,,,0.13,WeatherCatV1.13B119,2013-03-20 21:41:00,
2013-03-20 16:46:00,74.2,34.0,30.08,ESE,105,1.0,3.0,23,0.00,,,0.13,WeatherCatV1.13B119,2013-03-20 21:46:00,
2013-03-20 16:51:00,74.6,34.3,30.08,East,96,2.0,5.0,23,0.00,,,0.13,WeatherCatV1.13B119,2013-03-20 21:51:00,
2013-03-20 16:56:00,74.1,31.7,30.07,ESE,110,2.0,6.0,21,0.00,,,0.13,WeatherCatV1.13B119,2013-03-20 21:56:00,
2013-03-20 17:01:00,74.0,35.9,30.07,ESE,104,3.0,3.0,25,0.00,,,0.13,WeatherCatV1.13B119,2013-03-20 22:01:00,
2013-03-20 17:06:00,74.2,35.1,30.07,ESE,103,1.0,6.0,24,0.00,,,0.13,WeatherCatV1.13B119,2013-03-20 22:06:00,
2013-03-20 17:11:00,74.5,36.4,30.07,NE,56,1.0,3.0,25,0.00,,,0.13,WeatherCatV1.13B119,2013-03-20 22:11:00,
2013-03-20 17:16:00,73.8,34.7,30.07,East,87,1.0,6.0,24,0.00,,,0.13,WeatherCatV1.13B119,2013-03-20 22:16:00,
2013-03-20 17:21:00,73.4,34.4,30.07,North,3,2.0,3.0,24,0.00,,,0.13,WeatherCatV1.13B119,2013-03-20 22:21:00,
2013-03-20 17:26:00,72.9,32.9,30.06,ESE,113,2.0,6.0,23,0.00,,,0.13,WeatherCatV1.13B119,2013-03-20 22:26:00,
2013-03-20 17:31:00,73.0,34.1,30.06,East,97,4.0,5.0,24,0.00,,,0.13,WeatherCatV1.13B119,2013-03-20 22:31:00,
2013-03-20 17:36:00,72.0,33.2,30.06,East,95,2.0,7.0,24,0.00,,,0.13,WeatherCatV1.13B119,2013-03-20 22:36:00,
2013-03-20 17:41:00,71.0,34.4,30.06,ESE,104,1.0,4.0,26,0.00,,,0.13,WeatherCatV1.13B119,2013-03-20 22:41:00,
2013-03-20 17:46:00,70.4,31.9,30.06,ESE,112,3.0,7.0,24,0.00,,,0.13,WeatherCatV1.13B119,2013-03-20 22:46:00,
2013-03-20 17:51:00,69.5,33.1,30.06,East,101,3.0,6.0,26,0.00,,,0.13,WeatherCatV1.13B119,2013-03-20 22:51:00,
2013-03-20 17:56:00,69.0,34.5,30.06,East,84,0.0,1.0,28,0.00,,,0.13,WeatherCatV1.13B119,2013-03-20 22:56:00,
2013-03-20 18:01:00,68.8,35.2,30.06,East,98,0.0,4.0,29,0.00,,,0.13,WeatherCatV1.13B119,2013-03-20 23:01:00,
2013-03-20 18:06:00,68.5,35.0,30.06,East,79,3.0,4.0,29,0.00,,,0.13,WeatherCatV1.13B119,2013-03-20 23:06:00,
2013-03-20 18:11:00,68.7,35.2,30.06,SE,127,1.0,5.0,29,0.00,,,0.13,WeatherCatV1.13B119,2013-03-20 23:11:00,
2013-03-20 18:16:00,69.1,35.5,30.05,SE,130,2.0,2.0,29,0.00,,,0.13,WeatherCatV1.13B119,2013-03-20 23:16:00,
2013-03-20 18:21:00,69.4,34.9,30.05,ESE,120,1.0,5.0,28,0.00,,,0.13,WeatherCatV1.13B119,2013-03-20 23:21:00,
2013-03-20 18:26:00,69.5,35.0,30.05,East,89,3.0,3.0,28,0.00,,,0.13,WeatherCatV1.13B119,2013-03-20 23:26:00,
2013-03-20 18:31:00,69.3,34.8,30.05,ESE,115,2.0,5.0,28,0.00,,,0.13,WeatherCatV1.13B119,2013-03-20 23:31:00,
2013-03-20 18:36:00,68.8,36.1,30.05,East,100,4.0,6.0,30,0.00,,,0.13,WeatherCatV1.13B119,2013-03-20 23:36:00,
2013-03-20 18:41:00,68.4,35.7,30.05,ESE,108,1.0,2.0,30,0.00,,,0.13,WeatherCatV1.13B119,2013-03-20 23:41:00,
2013-03-20 18:46:00,68.0,35.4,30.06,NE,52,0.0,3.0,30,0.00,,,0.13,WeatherCatV1.13B119,2013-03-20 23:46:00,
2013-03-20 18:51:00,68.0,36.2,30.06,East,94,0.0,1.0,31,0.00,,,0.13,WeatherCatV1.13B119,2013-03-20 23:51:00,
2013-03-20 18:56:00,68.2,38.0,30.06,ESE,113,0.0,2.0,33,0.00,,,0.13,WeatherCatV1.13B119,2013-03-20 23:56:00,
2013-03-20 19:01:00,68.2,36.4,30.06,East,101,1.0,1.0,31,0.00,,,0.13,WeatherCatV1.13B119,2013-03-21 00:01:00,
2013-03-20 19:06:00,67.9,36.9,30.06,East,93,0.0,4.0,32,0.00,,,0.13,WeatherCatV1.13B119,2013-03-21 00:06:00,
2013-03-20 19:11:00,67.6,38.2,30.05,East,101,0.0,0.0,34,0.00,,,0.13,WeatherCatV1.13B119,2013-03-21 00:11:00,
2013-03-20 19:16:00,67.2,38.6,30.05,East,99,0.0,4.0,35,0.00,,,0.13,WeatherCatV1.13B119,2013-03-21 00:16:00,
2013-03-20 19:21:00,66.8,38.3,30.05,East,99,0.0,1.0,35,0.00,,,0.13,WeatherCatV1.13B119,2013-03-21 00:21:00,
2013-03-20 19:26:00,66.4,39.3,30.05,ESE,108,0.0,2.0,37,0.00,,,0.13,WeatherCatV1.13B119,2013-03-21 00:26:00,
2013-03-20 19:31:00,66.0,39.0,30.05,ESE,104,0.0,0.0,37,0.00,,,0.13,WeatherCatV1.13B119,2013-03-21 00:31:00,
2013-03-20 19:36:00,65.6,37.9,30.05,East,101,0.0,1.0,36,0.00,,,0.13,WeatherCatV1.13B119,2013-03-21 00:36:00,
2013-03-20 19:41:00,65.3,38.4,30.05,East,101,0.0,0.0,37,0.00,,,0.13,WeatherCatV1.13B119,2013-03-21 00:41:00,
2013-03-20 19:46:00,64.7,39.2,30.05,East,101,0.0,0.0,39,0.00,,,0.13,WeatherCatV1.13B119,2013-03-21 00:46:00,
2013-03-20 19:51:00,63.7,39.6,30.05,East,101,0.0,0.0,41,0.00,,,0.13,WeatherCatV1.13B119,2013-03-21 00:51:00,
2013-03-20 19:56:00,62.8,40.6,30.05,East,101,0.0,1.0,44,0.00,,,0.13,WeatherCatV1.13B119,2013-03-21 00:56:00,
2013-03-20 20:02:00,61.8,41.4,30.05,East,101,0.0,0.0,47,0.00,,,0.13,WeatherCatV1.13B119,2013-03-21 01:02:00,
2013-03-20 20:07:00,60.9,41.1,30.05,East,101,0.0,0.0,48,0.00,,,0.13,WeatherCatV1.13B119,2013-03-21 01:07:00,
2013-03-20 20:12:00,60.2,41.5,30.05,East,101,0.0,0.0,50,0.00,,,0.13,WeatherCatV1.13B119,2013-03-21 01:12:00,
2013-03-20 20:17:00,59.5,40.3,30.05,East,101,0.0,1.0,49,0.00,,,0.13,WeatherCatV1.13B119,2013-03-21 01:17:00,
2013-03-20 20:22:00,59.1,40.5,30.05,East,101,0.0,0.0,50,0.00,,,0.13,WeatherCatV1.13B119,2013-03-21 01:22:00,
2013-03-20 20:27:00,58.7,41.6,30.04,East,101,0.0,1.0,53,0.00,,,0.13,WeatherCatV1.13B119,2013-03-21 01:27:00,
2013-03-20 20:31:00,58.4,41.3,30.05,NE,49,0.0,0.0,53,0.00,,,0.13,WeatherCatV1.13B119,2013-03-21 01:31:00,
2013-03-20 20:36:00,58.2,42.1,30.04,NE,48,0.0,0.0,55,0.00,,,0.13,WeatherCatV1.13B119,2013-03-21 01:36:00,
2013-03-20 20:42:00,57.9,41.4,30.04,NE,48,0.0,1.0,54,0.00,,,0.13,WeatherCatV1.13B119,2013-03-21 01:42:00,
2013-03-20 20:47:00,57.4,41.8,30.04,NNE,28,0.0,0.0,56,0.00,,,0.13,WeatherCatV1.13B119,2013-03-21 01:47:00,
2013-03-20 20:51:00,57.1,42.0,30.04,NNE,28,0.0,0.0,57,0.00,,,0.13,WeatherCatV1.13B119,2013-03-21 01:51:00,
2013-03-20 20:56:00,56.7,41.6,30.04,NNE,28,0.0,0.0,57,0.00,,,0.13,WeatherCatV1.13B119,2013-03-21 01:56:00,
2013-03-20 21:01:00,56.5,42.3,30.04,NNE,28,0.0,0.0,59,0.00,,,0.13,WeatherCatV1.13B119,2013-03-21 02:01:00,
2013-03-20 21:06:00,56.1,42.8,30.04,NNE,28,0.0,0.0,61,0.00,,,0.13,WeatherCatV1.13B119,2013-03-21 02:06:00,
2013-03-20 21:11:00,55.9,42.2,30.04,NNE,28,0.0,0.0,60,0.00,,,0.13,WeatherCatV1.13B119,2013-03-21 02:11:00,
2013-03-20 21:17:00,55.8,43.0,30.04,NNE,28,0.0,0.0,62,0.00,,,0.13,WeatherCatV1.13B119,2013-03-21 02:17:00,
2013-03-20 21:22:00,55.8,43.0,30.04,NNE,28,0.0,0.0,62,0.00,,,0.13,WeatherCatV1.13B119,2013-03-21 02:22:00,
2013-03-20 21:26:00,55.6,42.8,30.04,NNE,28,0.0,0.0,62,0.00,,,0.13,WeatherCatV1.13B119,2013-03-21 02:26:00,
2013-03-20 21:32:00,55.5,43.1,30.04,NNE,28,0.0,0.0,63,0.00,,,0.13,WeatherCatV1.13B119,2013-03-21 02:32:00,
2013-03-20 21:37:00,55.5,42.7,30.04,NNE,28,0.0,0.0,62,0.00,,,0.13,WeatherCatV1.13B119,2013-03-21 02:37:00,
2013-03-20 21:42:00,55.4,42.6,30.03,NNE,28,0.0,0.0,62,0.00,,,0.13,WeatherCatV1.13B119,2013-03-21 02:42:00,
2013-03-20 21:47:00,55.3,43.3,30.03,NNE,28,0.0,0.0,64,0.00,,,0.13,WeatherCatV1.13B119,2013-03-21 02:47:00,
2013-03-20 21:52:00,55.1,43.1,30.03,NNE,28,0.0,0.0,64,0.00,,,0.13,WeatherCatV1.13B119,2013-03-21 02:52:00,
2013-03-20 21:57:00,55.3,43.7,30.03,NNE,28,0.0,0.0,65,0.00,,,0.13,WeatherCatV1.13B119,2013-03-21 02:57:00,
2013-03-20 22:02:00,55.2,43.2,30.03,NNE,28,0.0,0.0,64,0.00,,,0.13,WeatherCatV1.13B119,2013-03-21 03:02:00,
2013-03-20 22:07:00,55.0,43.0,30.03,NNE,28,0.0,0.0,64,0.00,,,0.13,WeatherCatV1.13B119,2013-03-21 03:07:00,
2013-03-20 22:12:00,54.8,43.3,30.03,NNE,28,0.0,0.0,65,0.00,,,0.13,WeatherCatV1.13B119,2013-03-21 03:12:00,
2013-03-20 22:17:00,54.5,43.0,30.03,NNE,28,0.0,0.0,65,0.00,,,0.13,WeatherCatV1.13B119,2013-03-21 03:17:00,
2013-03-20 22:22:00,54.3,43.6,30.03,NNE,28,0.0,0.0,67,0.00,,,0.13,WeatherCatV1.13B119,2013-03-21 03:22:00,
2013-03-20 22:27:00,54.2,43.1,30.03,NNE,28,0.0,0.0,66,0.00,,,0.13,WeatherCatV1.13B119,2013-03-21 03:27:00,
2013-03-20 22:32:00,54.1,42.6,30.03,NNE,28,0.0,0.0,65,0.00,,,0.13,WeatherCatV1.13B119,2013-03-21 03:32:00,
2013-03-20 22:36:00,54.0,43.3,30.03,NNE,28,0.0,0.0,67,0.00,,,0.13,WeatherCatV1.13B119,2013-03-21 03:36:00,
2013-03-20 22:42:00,53.8,43.1,30.03,NNE,28,0.0,0.0,67,0.00,,,0.13,WeatherCatV1.13B119,2013-03-21 03:42:00,
2013-03-20 22:47:00,53.5,44.0,30.03,NNE,28,0.0,0.0,70,0.00,,,0.13,WeatherCatV1.13B119,2013-03-21 03:47:00,
2013-03-20 22:52:00,53.2,43.7,30.03,NNE,28,0.0,0.0,70,0.00,,,0.13,WeatherCatV1.13B119,2013-03-21 03:52:00,
2013-03-20 22:56:00,52.8,43.7,30.03,NNE,28,0.0,0.0,71,0.00,,,0.13,WeatherCatV1.13B119,2013-03-21 03:56:00,
2013-03-20 23:00:00,52.8,43.7,30.02,NNE,28,0.0,0.0,71,0.00,,,0.13,WeatherCatV1.13B119,2013-03-21 04:00:00,
2013-03-20 23:01:00,52.8,43.7,30.03,NNE,28,0.0,0.0,71,0.00,,,0.13,WeatherCatV1.13B119,2013-03-21 04:01:00,
2013-03-20 23:06:00,52.9,43.8,30.03,NNE,28,0.0,0.0,71,0.00,,,0.13,WeatherCatV1.13B119,2013-03-21 04:06:00,
2013-03-20 23:11:00,52.9,44.1,30.03,NNE,28,0.0,0.0,72,0.00,,,0.13,WeatherCatV1.13B119,2013-03-21 04:11:00,
2013-03-20 23:16:00,53.0,44.6,30.02,NNE,28,0.0,0.0,73,0.00,,,0.13,WeatherCatV1.13B119,2013-03-21 04:16:00,
2013-03-20 23:21:00,53.0,44.6,30.02,NNE,28,0.0,0.0,73,0.00,,,0.13,WeatherCatV1.13B119,2013-03-21 04:21:00,
2013-03-20 23:26:00,53.0,44.2,30.02,NNE,28,0.0,0.0,72,0.00,,,0.13,WeatherCatV1.13B119,2013-03-21 04:26:00,
2013-03-20 23:31:00,52.8,43.7,30.01,NNE,28,0.0,0.0,71,0.00,,,0.13,WeatherCatV1.13B119,2013-03-21 04:31:00,
2013-03-20 23:36:00,52.7,43.6,30.01,NNE,28,0.0,0.0,71,0.00,,,0.13,WeatherCatV1.13B119,2013-03-21 04:36:00,
2013-03-20 23:41:00,52.6,43.5,30.01,NNE,28,0.0,0.0,71,0.00,,,0.13,WeatherCatV1.13B119,2013-03-21 04:41:00,
2013-03-20 23:46:00,52.5,43.4,30.01,NNE,28,0.0,0.0,71,0.00,,,0.13,WeatherCatV1.13B119,2013-03-21 04:46:00,
2013-03-20 23:51:00,52.2,43.1,30.01,NNE,28,0.0,0.0,71,0.00,,,0.13,WeatherCatV1.13B119,2013-03-21 04:51:00,
2013-03-20 23:56:00,52.1,42.6,30.00,NNE,28,0.0,0.0,70,0.00,,,0.13,WeatherCatV1.13B119,2013-03-21 04:56:00,